Wind_Speed
25 25 24 20 17 15 15 15 17 18 13 14 3 11 9 7 6 6 6 8 10 11 10 11 11 11 9 10 11 12 13 13 9 8 9 9 11 12 13 13 13 11 10
26 26 26 25 22 18 16 16 16 19 14 13 12 14 13 7 6 6 7 8 9 11 12 13 13 12 12 11 11 12 13 13 13 12 10 11 12 13 15 15 16 16 15
24 24 26 27 26 23 20 17 16 18 17 15 15 14 12 10 9 9 9 8 10 11 12 12 12 13 13 14 13 13 14 13 14 14 14 14 14 14 14 17 17 18 21
31 26 29 26 27 27 25 22 19 18 18 17 16 15 13 12 11 12 12 12 12 11 12 13 14 14 13 13 14 15 16 16 17 16 16 16 17 18 16 19 19 19 21
22 28 23 27 30 24 27 24 23 22 21 20 20 19 17 15 16 16 15 14 13 13 13 14 14 15 15 15 15 15 15 16 17 17 17 18 19 18 21 19 19 20 23
27 26 28 27 16 27 31 28 26 24 24 23 22 23 23 20 20 21 20 18 15 14 14 13 13 13 14 15 16 16 16 17 19 19 19 20 21 20 21 20 20 20 20
30 24 31 32 31 26 27 28 30 30 29 26 26 26 26 26 25 24 24 22 20 20 18 16 14 14 13 12 13 13 13 14 16 16 17 20 19 20 18 18 18 18 18
32 26 28 33 34 32 32 34 32 34 34 30 29 29 30 29 29 28 27 26 24 24 22 20 20 20 18 17 17 16 16 16 17 17 16 16 12 14 13 13 16 17 17
41 39 37 33 34 23 37 35 35 35 34 34 33 31 31 32 33 32 32 31 30 28 27 26 26 25 24 24 22 20 20 21 21 21 19 18 17 17 17 15 18 17 17
47 44 45 42 39 40 29 28 39 36 36 35 36 36 34 32 35 36 37 36 34 32 32 31 31 29 31 30 26 25 22 24 24 25 22 23 22 23 23 22 23 21 21
53 52 51 48 46 41 40 36 33 41 41 37 37 36 36 38 38 39 41 42 39 38 38 36 35 35 35 34 32 29 24 29 28 26 24 25 25 26 27 28 27 27 25
53 53 52 52 52 49 46 45 44 41 40 35 42 39 34 39 41 45 46 46 45 45 44 43 42 41 40 39 37 34 33 33 32 28 26 25 28 30 30 28 27 28 28
55 55 55 54 54 54 52 50 48 48 46 42 39 37 43 36 44 48 50 49 49 50 49 48 48 47 46 44 42 41 39 38 36 33 29 29 31 33 33 32 31 29 27
61 61 60 58 58 58 57 56 54 52 51 48 45 44 41 38 43 50 52 48 46 48 50 51 50 50 49 48 46 44 43 41 41 38 34 33 35 36 36 37 35 34 33
66 66 67 67 65 63 63 61 60 57 56 54 50 46 45 39 35 43 46 47 45 45 47 49 49 49 49 50 49 47 46 45 45 44 43 40 39 39 38 39 38 38 37
67 69 69 70 71 71 70 68 66 64 61 60 56 53 49 44 48 50 53 54 49 49 49 46 44 48 45 43 45 47 48 47 47 47 48 46 45 43 41 40 41 41 39
65 68 70 72 73 73 74 75 74 72 69 66 63 59 57 53 54 53 55 57 50 58 54 50 52 53 45 37 34 38 42 42 44 45 45 46 47 48 47 45 44 44 43
66 67 69 70 72 75 76 76 77 78 76 74 71 68 66 61 59 60 60 56 57 56 49 53 57 56 40 39 35 36 37 38 39 41 41 43 44 42 44 45 44 45 45
64 68 72 72 72 73 76 79 79 79 79 79 78 75 72 71 70 68 65 62 59 57 58 53 50 53 49 44 43 44 43 42 41 44 43 40 42 43 43 42 43 43 43
66 70 72 73 74 74 73 75 77 80 81 81 81 80 79 78 77 75 73 70 66 64 61 56 51 50 54 49 48 47 48 45 46 46 46 42 38 38 40 41 42 41 40
74 73 75 78 77 77 75 73 72 75 76 78 78 79 81 82 83 81 80 78 74 69 65 62 55 50 54 54 54 55 53 51 49 49 50 51 48 45 40 39 40 42 43
63 66 68 71 75 79 81 79 75 73 72 70 71 72 73 81 85 85 83 81 79 76 73 70 65 57 57 57 59 60 57 55 54 56 56 61 55 49 45 42 41 44 48
59 60 62 63 68 74 77 79 81 79 74 70 67 66 67 72 79 84 86 85 84 81 77 79 74 69 62 63 62 62 62 60 57 54 51 67 55 49 47 41 44 51 52
60 60 59 58 59 64 68 76 77 79 78 72 69 66 65 67 69 70 79 84 86 86 87 83 79 75 71 66 64 64 65 67 67 66 64 57 44 49 40 36 37 43 54
53 55 49 50 52 55 56 60 69 75 77 76 71 67 66 68 71 70 69 69 77 87 93 89 85 81 76 72 71 66 62 61 64 66 71 71 68 48 42 37 35 34 38
45 47 44 41 43 48 49 54 57 63 68 69 69 67 68 70 71 72 73 75 75 75 81 88 90 86 82 78 77 73 69 65 63 62 72 51 46 42 43 41 37 33 34
Wind_Direction
223 225 220 215 224 226 224 225 233 235 212 236 241 261 241 227 222 212 215 220 220 208 197 192 187 182 181 190 202 201 196 204 201 217 223 233 237 246 254 269 282 294 317
221 224 227 224 220 229 234 231 238 247 236 218 212 234 238 235 226 218 226 222 226 228 214 204 199 195 189 189 198 205 207 214 219 226 233 237 250 250 258 267 279 294 298
232 228 230 229 228 225 233 236 238 248 243 225 224 230 232 225 226 230 229 225 227 230 226 220 214 214 208 206 206 210 219 223 231 237 245 249 255 258 263 270 279 291 300
226 226 226 230 230 232 228 232 234 240 247 244 230 227 234 236 233 236 239 231 229 228 234 232 232 231 226 226 220 220 228 229 235 240 244 251 256 262 264 271 281 289 296
212 225 232 232 211 224 229 228 231 232 235 235 237 232 227 227 230 231 231 232 231 227 227 234 236 240 241 239 244 242 243 245 250 252 254 257 261 264 269 275 280 287 294
230 231 227 242 236 221 221 222 227 228 231 233 232 233 228 225 226 227 229 228 230 231 230 225 234 240 242 247 251 254 257 261 263 266 269 271 273 275 277 284 286 289 288
220 233 237 242 238 226 228 229 231 233 231 232 233 233 232 229 229 228 230 229 227 228 232 231 228 235 238 240 251 256 257 263 268 270 273 275 281 284 287 286 283 282 284
247 248 242 241 254 246 237 233 233 230 234 236 238 237 235 234 234 233 232 231 228 230 229 233 236 237 239 242 244 251 255 256 262 270 274 280 287 289 285 283 280 281 291
252 254 255 260 253 253 248 242 238 238 237 236 235 238 240 241 241 240 238 236 234 233 237 238 240 244 245 243 247 249 252 261 262 265 268 273 282 282 280 284 283 287 288
256 256 259 260 262 254 258 256 240 240 240 238 238 235 236 238 244 247 247 241 238 239 238 239 242 243 249 252 250 251 260 260 263 270 272 273 272 272 276 278 277 278 282
251 254 256 258 259 257 258 259 254 240 238 241 239 239 238 239 239 242 247 249 245 242 243 243 244 245 245 249 253 258 258 258 264 266 269 272 269 267 270 273 275 277 278
250 252 254 257 260 259 255 255 256 259 250 250 245 247 248 249 244 243 244 247 248 245 244 246 248 247 251 252 254 257 259 260 262 263 263 264 266 267 267 266 269 275 280
252 252 253 254 256 260 261 258 255 256 257 255 250 247 250 255 244 254 248 245 245 247 246 247 248 250 251 252 256 258 260 262 265 264 261 261 262 263 267 270 270 270 270
254 254 253 252 252 254 257 259 260 258 256 256 253 249 253 259 266 244 240 246 249 251 250 249 250 251 252 254 255 257 261 265 266 264 261 259 260 262 265 268 271 274 273
254 254 254 254 253 252 252 254 257 259 259 259 258 254 250 246 247 244 243 246 246 248 250 251 251 251 252 255 256 255 255 258 262 265 265 263 261 263 266 269 270 271 272
257 256 254 253 254 255 253 252 252 254 256 257 256 256 254 246 247 246 249 245 245 244 247 248 250 249 248 252 254 255 256 256 258 261 264 264 263 264 263 263 267 271 274
257 257 257 256 254 254 255 255 252 253 252 254 257 256 255 253 248 249 255 256 253 247 248 249 250 246 241 244 252 255 256 256 258 261 261 261 263 264 264 262 264 267 269
264 262 260 257 257 256 254 254 255 254 253 252 252 253 254 253 253 253 251 250 253 253 256 255 254 259 250 244 246 252 250 252 254 257 259 262 264 264 266 265 264 265 269
262 263 263 261 259 258 256 255 254 254 254 252 251 250 250 253 252 252 253 253 252 251 256 260 260 253 251 249 246 247 249 254 258 261 262 264 264 266 265 265 264 265 267
276 267 262 262 262 261 258 257 255 253 253 253 252 252 250 249 249 251 252 252 251 251 252 255 257 256 248 244 244 245 251 253 256 260 264 263 264 269 266 264 263 263 261
273 272 269 265 260 258 258 256 256 254 253 252 252 251 250 251 251 249 249 252 252 251 254 255 253 253 245 244 248 249 250 253 255 260 261 263 262 265 265 264 263 261 261
270 269 268 266 261 259 256 252 251 252 251 251 251 251 250 250 250 250 249 249 250 250 250 252 251 248 244 246 248 247 249 251 255 257 260 258 256 259 259 257 260 262 263
274 272 268 266 264 258 253 253 251 248 248 247 247 249 251 252 250 249 249 248 248 248 247 246 248 249 247 246 243 246 247 249 250 256 259 258 253 248 251 252 262 264 263
282 277 273 269 264 262 257 249 247 247 247 247 246 248 249 251 250 249 248 247 247 247 247 245 244 246 248 246 244 245 245 246 246 248 251 265 263 256 260 271 280 276 267
284 280 277 271 268 264 260 252 245 243 241 243 245 245 246 246 247 248 250 248 247 246 246 245 243 241 243 245 245 243 242 242 246 249 252 252 257 260 269 271 279 283 275
283 282 279 272 268 264 257 251 249 244 239 237 241 244 247 246 243 243 247 250 253 251 247 245 244 242 241 240 243 243 242 244 249 255 255 258 257 261 269 271 272 278 282
Height
5919 5923 5927 5931 5937 5940 5942 5943 5941 5942 5954 5952 5952 5958 5960 5961 5962 5963 5965 5970 5971 5972 5972 5973 5975 5976 5977 5979 5983 5984 5985 5987 5989 5990 5990 5991 5991 5992 5992 5991 5990 5990 5990
5912 5917 5922 5928 5932 5937 5939 5941 5941 5938 5945 5950 5953 5956 5959 5960 5960 5962 5964 5967 5970 5972 5972 5973 5974 5976 5977 5979 5980 5982 5984 5986 5987 5988 5989 5989 5989 5990 5989 5989 5988 5988 5987
5909 5913 5916 5920 5926 5932 5935 5937 5939 5938 5941 5946 5950 5954 5957 5958 5959 5961 5963 5966 5968 5969 5970 5972 5974 5975 5976 5977 5979 5980 5982 5984 5986 5986 5987 5986 5986 5987 5987 5986 5985 5985 5982
5902 5905 5907 5914 5918 5925 5927 5932 5935 5938 5938 5941 5945 5948 5951 5954 5957 5959 5962 5964 5966 5967 5968 5970 5972 5973 5975 5976 5977 5978 5979 5981 5982 5982 5983 5983 5982 5982 5984 5982 5981 5981 5980
5895 5898 5905 5902 5894 5913 5920 5924 5929 5933 5936 5938 5940 5943 5946 5950 5954 5957 5960 5962 5964 5964 5965 5967 5968 5971 5973 5974 5974 5975 5976 5977 5977 5978 5979 5979 5978 5978 5977 5979 5978 5977 5975
5890 5893 5900 5893 5911 5905 5910 5916 5922 5927 5931 5934 5937 5939 5942 5946 5949 5952 5955 5957 5960 5962 5963 5963 5965 5967 5968 5969 5970 5971 5972 5972 5973 5973 5974 5974 5973 5974 5973 5974 5973 5972 5972
5884 5886 5890 5892 5901 5903 5905 5910 5916 5919 5924 5928 5932 5935 5938 5941 5943 5946 5949 5951 5954 5957 5959 5961 5961 5963 5964 5965 5966 5968 5968 5968 5968 5968 5969 5967 5968 5968 5968 5968 5967 5966 5966
5877 5879 5883 5885 5888 5896 5900 5904 5906 5910 5916 5922 5926 5929 5932 5935 5937 5940 5942 5945 5948 5951 5954 5955 5957 5957 5958 5959 5960 5963 5964 5964 5963 5963 5964 5963 5964 5963 5963 5963 5962 5962 5962
5872 5874 5879 5883 5884 5888 5890 5894 5899 5903 5907 5912 5916 5921 5925 5929 5931 5932 5934 5938 5942 5945 5948 5949 5951 5952 5953 5952 5954 5956 5957 5958 5959 5958 5959 5960 5960 5959 5959 5959 5957 5958 5958
5861 5866 5869 5872 5876 5880 5884 5887 5892 5896 5899 5903 5907 5911 5915 5920 5924 5927 5928 5930 5935 5939 5940 5942 5944 5946 5946 5946 5947 5949 5951 5952 5952 5953 5954 5954 5955 5954 5953 5952 5951 5952 5951
5852 5855 5858 5862 5865 5871 5875 5878 5882 5886 5889 5893 5897 5901 5905 5910 5914 5917 5919 5922 5926 5929 5931 5934 5936 5936 5936 5937 5939 5941 5945 5943 5944 5946 5948 5949 5948 5948 5947 5946 5945 5944 5945
5841 5844 5848 5850 5853 5858 5864 5867 5871 5874 5879 5882 5887 5891 5896 5899 5902 5905 5908 5911 5914 5917 5921 5924 5925 5927 5928 5929 5931 5934 5934 5934 5936 5938 5940 5941 5940 5939 5939 5939 5939 5938 5937
5828 5832 5836 5839 5842 5844 5849 5854 5859 5863 5867 5871 5876 5880 5885 5886 5890 5893 5896 5898 5899 5902 5909 5912 5914 5917 5919 5921 5922 5923 5924 5926 5928 5930 5932 5932 5930 5930 5930 5931 5930 5929 5931
5813 5817 5822 5827 5829 5833 5836 5840 5844 5850 5854 5859 5862 5867 5871 5873 5873 5874 5879 5886 5888 5891 5896 5900 5903 5905 5909 5912 5914 5916 5916 5916 5916 5918 5921 5922 5921 5921 5921 5921 5921 5921 5920
5797 5801 5805 5809 5814 5819 5823 5827 5831 5836 5840 5844 5849 5854 5858 5862 5863 5865 5866 5871 5874 5877 5881 5886 5891 5894 5896 5898 5901 5904 5906 5906 5905 5907 5908 5911 5911 5911 5912 5911 5911 5911 5911
5778 5782 5787 5792 5796 5800 5806 5811 5815 5820 5824 5828 5834 5838 5844 5849 5851 5853 5854 5857 5861 5866 5869 5873 5877 5879 5882 5885 5887 5889 5891 5893 5895 5895 5896 5897 5899 5900 5901 5900 5900 5900 5900
5762 5765 5768 5772 5777 5782 5785 5790 5796 5801 5807 5813 5817 5824 5828 5834 5836 5839 5840 5845 5850 5852 5857 5861 5861 5862 5868 5871 5873 5876 5878 5879 5880 5882 5884 5886 5885 5886 5886 5888 5889 5889 5889
5743 5746 5749 5753 5756 5760 5764 5769 5773 5780 5787 5794 5801 5805 5809 5815 5820 5823 5827 5829 5833 5839 5844 5847 5849 5853 5856 5860 5861 5864 5865 5867 5869 5870 5871 5872 5872 5873 5873 5875 5876 5877 5876
5724 5725 5727 5731 5735 5739 5742 5746 5752 5757 5763 5771 5777 5785 5792 5794 5799 5804 5809 5815 5820 5823 5830 5833 5836 5841 5845 5847 5849 5850 5853 5855 5857 5857 5859 5861 5861 5860 5862 5863 5864 5864 5864
5705 5705 5706 5708 5711 5715 5720 5723 5728 5733 5738 5745 5754 5762 5769 5772 5777 5783 5789 5795 5800 5807 5813 5818 5822 5826 5831 5833 5835 5837 5840 5843 5845 5846 5847 5847 5848 5848 5850 5851 5852 5852 5853
5684 5682 5682 5685 5688 5691 5696 5701 5704 5709 5714 5721 5729 5736 5743 5748 5754 5762 5768 5774 5783 5791 5795 5800 5806 5809 5814 5819 5821 5824 5826 5830 5833 5835 5833 5833 5834 5835 5837 5837 5839 5840 5841
5661 5661 5660 5659 5660 5664 5669 5674 5681 5686 5691 5698 5705 5711 5716 5720 5728 5737 5746 5755 5761 5769 5775 5779 5786 5792 5796 5801 5804 5808 5812 5816 5819 5819 5818 5815 5816 5818 5819 5821 5822 5826 5827
5640 5639 5638 5636 5634 5636 5641 5646 5653 5660 5667 5674 5681 5687 5692 5695 5701 5711 5719 5728 5735 5743 5752 5755 5764 5772 5778 5783 5788 5792 5796 5800 5801 5802 5797 5796 5797 5798 5799 5802 5807 5809 5811
5618 5615 5614 5613 5612 5612 5614 5618 5625 5633 5641 5650 5657 5664 5671 5674 5677 5683 5691 5699 5708 5716 5720 5731 5744 5752 5758 5765 5770 5773 5777 5781 5783 5786 5786 5784 5783 5788 5785 5786 5788 5790 5792
5600 5596 5594 5593 5591 5590 5592 5594 5598 5605 5613 5624 5633 5640 5646 5652 5656 5662 5666 5671 5677 5685 5690 5709 5718 5728 5736 5742 5749 5756 5759 5761 5765 5768 5770 5770 5775 5778 5777 5776 5777 5776 5777
5587 5581 5578 5576 5574 5572 5573 5575 5578 5583 5592 5601 5610 5617 5623 5628 5634 5640 5644 5648 5654 5660 5668 5680 5691 5703 5713 5720 5726 5733 5740 5743 5746 5747 5752 5754 5755 5761 5764 5765 5763 5763 5764